CZ-4C R/B

Satellite information

Favourite Embed

Satellite Type and Status

ROCKET BODYIN ORBIT

Key statistics

Satellite CZ-4C R/B at a glance.

Uptime

5519

Days in orbit

Revolutions

≈ 14.5

Per day

Orbit

SSO

Sun Synchronous Orbit

Inclination

98.8

Latest

Satellite identification and parameters

Extended collection of information and parameters for CZ-4C R/B.

Object identification

Identified? True

Debris? False

Object name: CZ-4C R/B

International designator: 2010-059B

Object number (NORAD): 37215

Object ID (CCSDS): 37215

Country: PEOPLES REPUBLIC OF CHINA (PRC)

Current information (Y/N): Y

RCS size: LARGE

Orbital parameters

Period: 99.464 minutes

Inclination: 98.7899 deg

SMA: 7111.112 km

Apoapsis: 795.227 km

Periapsis: 670.728 km

RAAN: 225.6426 deg

Eccentricy: 0.00875386

Argument of periapsis: 71.5044 deg

Mean anomaly: 289.5636 deg

Mean motion: 14.4775964 rev/day

Mean motion (dot): 0.00000415 rev/day2

B* drag term: 0.00012016357 1/REarth

Two-line elements (TLE)

Creation date: Dec. 12, 2025, 10:14 a.m.

Reference frame: TEME

Reference center: EARTH

Epoch: Dec. 12, 2025, 6:11 a.m. UTC

TLE line 0: 0 CZ-4C R/B

TLE line 1: 1 37215U 10059B 25346.25797269 .00000415 00000-0 12016-3 0 9993

TLE line 2: 2 37215 98.7899 225.6426 0087539 71.5044 289.5636 14.47759640797324

Live tracking on map

Real-time ground track for satellite CZ-4C R/B.

In-orbit conjunctions

A list of the most updated potential collisions computed for object CZ-4C R/B.

Target Orbit TCA Probability of collision Miss distance Type
FENGYUN 1C DEB * SSO 2025-08-14 22:30:11 0.0002337111 322.0 (m) DEBRIS
SL-8 DEB * LEO 2025-05-12 03:00:09 0.0001096056 251.0 (m) DEBRIS
FENGYUN 1C DEB SSO 2025-03-30 19:15:03 0.0002029503 424.0 (m) DEBRIS
FENGYUN 1C DEB SSO 2025-01-03 09:15:08 0.0001745085 339.0 (m) DEBRIS
ORBVIEW 1 (MICROLAB) LEO 2024-12-13 00:18:11 0.0005193557 692.0 (m) PAYLOAD

Associated space launch

CZ-4C R/B was lifted into orbit during the mission ‘Long March 4C | Feng Yun-3B’, on board a Long March 4C space rocket.

The launch took place on Nov. 4, 2010, 6:37 p.m. from Launch Complex 7.

For more information about the launch, click the button.

Launch to space Long March 4C | Feng Yun-3B
Long March 4C | Feng Yun-3B

Agency: N/A

Status: Launch Successful

Launch date: Nov. 4, 2010, 6:37 p.m. UTC

Rocket: Long March 4C

Launch pad: Launch Complex 7

Location: Taiyuan Satellite Launch Center, People's Republic of China

...

Latest news about this satellite

There are no fresh news available about this satellite. Check back as we update our databases every day.


Newsletter sign-up

Weekly statistics, charts and insights to help you stay on top of the space industry.